DO1MDT Weather Reports


Display with metric or nautical units.
time (UTC)temp
F
wind
direction
speed
MPH
gust
MPH
rain 1hr
in
rain 24hr
in
rain mn
in
humidity
%
barometer
mb
20260507083056 45 225 5.0 9.0 0.00 1.56 0.36 62 1013.9
20260507081552 45 202 3.0 9.0 0.00 1.56 0.36 62 1013.8
20260507080055 45 192 3.0 9.0 0.00 1.56 0.36 62 1013.7
20260507074557 45 237 2.0 9.0 0.00 1.61 0.36 62 1013.5
20260507073052 45 240 1.0 9.0 0.00 1.61 0.36 62 1013.4
20260507071556 45 217 2.0 9.0 0.00 1.61 0.36 62 1013.1
20260507070056 45 221 3.0 8.0 0.00 1.61 0.36 62 1013.0
20260507064607 45 223 2.0 6.0 0.00 1.71 0.36 62 1013.0
20260507063055 45 225 2.0 5.0 0.00 1.71 0.36 62 1012.7
20260507061553 45 204 2.0 8.0 0.00 1.71 0.36 62 1012.5
20260507060058 45 230 1.0 8.0 0.00 1.71 0.36 62 1012.3
20260507054606 45 221 2.0 10.0 0.00 1.88 0.36 62 1012.1
20260507053055 45 234 2.0 9.0 0.00 1.88 0.36 62 1012.0
20260507051555 45 232 1.0 10.0 0.00 1.87 0.35 62 1011.8
20260507050056 45 231 2.0 9.0 0.00 1.87 0.35 62 1011.5
20260507044554 45 228 4.0 10.0 0.00 2.18 0.35 62 1011.4
20260507043059 45 239 5.0 11.0 0.00 2.18 0.35 62 1011.2
20260507041603 45 252 2.0 9.0 0.00 2.18 0.35 62 1011.0
20260507040058 45 250 3.0 9.0 0.01 2.18 0.35 62 1011.0
20260507034556 45 246 2.0 9.0 0.03 2.46 0.35 61 1011.0
20260507033054 46 232 2.0 12.0 0.03 2.45 0.34 62 1010.9
20260507031558 46 246 3.0 12.0 0.03 2.45 0.34 61 1010.9
20260507024557 47 217 3.0 8.0 0.07 2.72 0.32 61 1010.6
20260507023110 47 240 3.0 9.0 0.10 2.71 0.31 61 1010.4
20260507021558 47 222 3.0 10.0 0.10 2.70 0.30 61 1010.2
20260507020056 47 184 1.0 10.0 0.07 2.67 0.27 61 1010.0
20260507014605 48 202 4.0 7.0 0.07 2.98 0.25 61 1009.8
20260507013110 48 208 1.0 4.0 0.04 2.94 0.21 61 1009.8
20260507011552 48 215 1.0 9.0 0.05 2.93 0.20 61 1009.5
20260507010056 48 209 0.0 11.0 0.05 2.92 0.18 61 1009.5
20260507004557 48 212 3.0 10.0 0.06 3.16 0.18 61 1009.2
20260507003056 48 192 1.0 9.0 0.05 3.14 0.16 61 1009.2
20260507001620 48 217 1.0 10.0 0.04 3.13 0.14 61 1009.0
20260506234555 48 207 3.0 9.0 0.05 3.33 0.11 61 1009.1
20260506233109 48 185 2.0 10.0 0.06 3.33 0.11 61 1008.9
20260506231555 48 210 3.0 11.0 0.07 3.32 0.10 61 1008.8
20260506230055 48 223 1.0 11.0 0.08 3.30 0.08 61 1008.8
20260506224552 48 201 3.0 11.0 0.08 3.44 0.06 61 1008.7
20260506223123 48 213 4.0 11.0 0.08 3.42 0.04 60 1008.7
20260506221555 49 210 4.0 11.0 0.10 3.40 0.03 60 1008.6
20260506220056 49 221 2.0 13.0 0.07 3.37 0.00 60 1008.5
20260506214604 50 213 4.0 10.0 0.07 3.36 3.35 60 1008.6
20260506213056 50 196 6.0 11.0 0.15 3.34 3.33 60 1008.4
20260506211557 50 0 2.0 10.0 0.22 3.31 3.30 60 1008.3
20260506210126 50 204 4.0 10.0 0.36 3.31 3.30 60 1008.2
20260506204602 50 220 4.0 12.0 0.48 3.29 3.28 60 1008.1
20260506203101 51 211 4.0 11.0 0.44 3.18 3.18 59 1008.2
20260506201558 51 184 2.0 5.0 0.43 3.08 3.07 59 1008.0
20260506200136 50 131 1.0 7.0 0.33 2.95 2.94 60 1008.0
20260506194612 50 129 1.0 5.0 0.20 2.81 2.80 60 1007.9
20260506193058 50 152 1.0 5.0 0.14 2.73 2.72 60 1007.9
20260506191600 51 158 1.0 6.0 0.06 2.65 2.64 60 1007.7
20260506190052 51 0 0.0 2.0 0.03 2.61 2.60 60 1007.7
20260506184556 51 0 0.0 1.0 0.02 2.59 2.59 60 1007.5
20260506183055 51 194 1.0 4.0 0.03 2.59 2.58 60 1007.2
20260506181553 51 194 1.0 4.0 0.04 2.59 2.58 60 1007.2
20260506180108 51 0 0.0 4.0 0.03 2.58 2.57 60 1007.0
20260506174559 51 194 1.0 3.0 0.03 2.57 2.56 60 1006.9
20260506173116 51 194 1.0 5.0 0.00 2.55 2.54 60 1007.0
20260506171601 51 195 2.0 7.0 0.00 2.54 2.53 60 1006.9
20260506170058 51 216 1.0 6.0 0.00 2.54 2.53 60 1006.8
20260506164553 51 227 1.0 6.0 0.00 2.54 2.53 60 1006.7
20260506163107 51 0 1.0 6.0 0.00 2.54 2.53 60 1006.6
20260506161557 51 221 3.0 7.0 0.00 2.54 2.53 60 1006.5
20260506160106 51 224 3.0 7.0 0.04 2.54 2.53 60 1006.7
20260506154555 51 225 2.0 6.0 0.11 2.54 2.53 60 1006.6
20260506153055 51 221 2.0 10.0 0.14 2.54 2.53 60 1006.8
20260506151555 51 232 2.0 9.0 0.14 2.54 2.53 60 1006.8
20260506150055 51 244 2.0 7.0 0.11 2.48 2.48 60 1006.8
20260506144554 51 246 2.0 7.0 0.07 2.42 2.41 60 1006.7
20260506143054 51 243 3.0 7.0 0.11 2.40 2.39 60 1006.6
20260506141551 51 235 2.0 9.0 0.11 2.39 2.38 60 1006.6
20260506140053 51 244 1.0 6.0 0.09 2.37 2.36 61 1006.7
20260506134616 51 232 2.0 11.0 0.07 2.34 2.33 61 1006.8
20260506133054 50 229 2.0 7.0 0.01 2.29 2.28 61 1006.8
20260506131609 50 0 2.0 8.0 0.00 2.27 2.26 61 1006.7
20260506130055 50 232 3.0 9.0 0.00 2.27 2.26 61 1006.7
20260506124556 50 227 3.0 7.0 0.00 2.27 2.26 61 1006.7
20260506123057 50 238 3.0 9.0 0.03 2.27 2.26 61 1006.8
20260506121604 50 238 1.0 11.0 0.04 2.27 2.26 61 1006.6
20260506120056 50 234 3.0 7.0 0.04 2.27 2.26 61 1006.4
20260506114556 49 227 2.0 7.0 0.03 2.26 2.25 61 1006.5
20260506113055 49 240 4.0 10.0 0.02 2.24 2.23 62 1006.5
20260506111610 49 227 3.0 6.0 0.01 2.22 2.22 62 1006.7
20260506110055 49 227 2.0 6.0 0.01 2.22 2.22 62 1006.6
20260506104554 49 236 3.0 5.0 0.01 2.22 2.22 62 1006.5
20260506103059 48 225 5.0 10.0 0.00 2.22 2.21 62 1006.5
20260506101554 48 222 3.0 8.0 0.00 2.21 2.20 62 1006.4
20260506100053 48 227 4.0 10.0 0.01 2.21 2.20 63 1006.5
20260506094556 48 226 1.0 6.0 0.03 2.21 2.20 63 1006.4
20260506093059 48 202 3.0 10.0 0.03 2.21 2.20 63 1006.4
20260506091555 48 208 2.0 5.0 0.02 2.20 2.19 62 1006.4
20260506090054 48 213 3.0 9.0 0.01 2.19 2.18 63 1006.2
20260506084553 48 202 2.0 6.0 0.00 2.18 2.17 63 1006.2